Location: ??????
(38.0677°N, 22.9870°E)
Time: 12:11:33
(UTC+00:00)

Cosmos 2278 - Pass Details

Date: 23 May 2024
Orbit: 837 x 853 km, 71.1° (Epoch: 18 June)

Event Time Altitude Azimuth Distance (km) Brightness Sun altitude
Rises 00:37:25 0° 334° (NNW) 3,427 7.3 -23.5°
Reaches altitude 10° 00:39:53 10° 331° (NNW) 2,488 6.5 -23.3°
Maximum altitude 00:45:32 64° 252° (WSW) 940 3.6 -22.6°
Enters shadow 00:46:58 48° 195° (SSW) 1,105 3.9 -22.5°
